THOR AGENA D R/B, 727

Orbit data source: Space-Track

THOR AGENA D R/B, 727 is space debris in LEO originally from a launch on Sat, 11 Jan 1964 UTC via a THOR SLV-2A AGENA D launch vehicle from the Air Force Western Test Range (AFWTR). Debris objects in space refer to the collection of defunct objects orbiting the Earth. Examples of debris include non-operational satellites, rocket bodies, and fragments generated from explosions, collisions, or faulty payload assembly.

Loading next visibility...
Identifier
727, 1964-001A
Orbit
LEO
Country
Flag of USUS
Related business
Manufacturer
HRB-Singer
Mission
Spacecraft
Bus & Motor
AFTRACK, Unknown motor
Mass
~700 kg wet, 5 kg dry
Launch date (UTC)
1964-01-11 (62 years ago)
Launch vehicle
THOR SLV-2A AGENA D
Launch site
Air Force Western Test Range (AFWTR)
Object type
Payload
Rocket body
Debris
Shape & HBR
Unknown
Radar Cross Section
Large (>1 m²)

Expand to show TLE details & history
Last TLE update: 7 hours ago

TLE from 7 hours ago
0 THOR AGENA D R/B
1 00727U 64001A   26037.62273786  .00000037  00000-0  66116-4 0  9990
2 00727  69.9042 210.7119 0015551 224.1868 135.7996 13.95776689158934
Epoch: 2026-02-06T14:56Z
TLE epoch observation values (Epoch: 2026-02-06T14:56:44.551Z)
Latitude
0.00002°
Longitude
-150.23168°
Altitude
918.895 km
Speed
7.389 km/s
True Right ascension
14h 02m 50s
True Declination
0° 00' 00"
Sunlit
Object was in daylight at epoch
Visualization orbit readout
Latitude
Unknown
Longitude
Unknown
Altitude
Unknown
Speed
Unknown
Apparent Right ascension
Unknown
Apparent Declination
Unknown
Sunlit
N/A
Visualization observer readout
Local Sidereal Time
23:38:04
Azimuth
Unknown
Elevation
Unknown
Doppler factor
Unknown
Orbital elements
Apogee altitude
917.838 km
Perigee altitude
895.181 km
Semi-major axis
7,284.647 km
Eccentricity
0.00156
Inclination
69.9042°
RAAN
210.7119°
Arg. of periapsis
224.1868°
True anomaly
135.92366°
Mean anomaly
135.7996°
Eccentric anomaly
135.86165°
Mean motion
3.49084 °/min
Orbital period
103.13 mins
BSTAR
0.000066116
Loading maneuver chart data...
Computing Atmospheric mass density...
Loading historical data...
Loading historical data...
Loading historical data...
Loading historical data...
Loading historical data...
Loading historical data...
Loading historical data...
Other satellites on launch #1 in the year 1964 (1964-01-11 UTC)

Documentation

Showing up to 5 results
|